Regional Weather Roundup
Issued by NWS

Home | Current Version | Previous Version | Text Only | Print | Product List | Glossary Off
Versions: 1 2 3 4 5 6 7 8 9 10 11 12 13 14 15 16 17 18 19 20 21 22 23 24 25 26 27 28 29 30 31 32 33 34 35 36 37 38 39 40 41 42 43 44 45 46 47 48 49 50

000
ASUS43 KFSD 032202
RWRSD

WEATHER ROUNDUP FOR SOUTH DAKOTA
NATIONAL WEATHER SERVICE SIOUX FALLS SD
400 PM CST TUE MAR 03 2015

NOTE: "FAIR" INDICATES FEW OR NO CLOUDS BELOW 12,000 FEET WITH NO
SIGNIFICANT WEATHER AND/OR OBSTRUCTIONS TO VISIBILITY.


SDZ001>005-009-010-012>017-032300-
NORTHWEST AND NORTH CENTRAL SOUTH DAKOTA

CITY           SKY/WX    TMP DP  RH WIND       PRES   REMARKS
BUFFALO          N/A     15  -3  44 W25       29.89S WCI  -4
FAITH            N/A     18  -1  43 NW22G33   29.97S WCI   1
MOBRIDGE       MOSUNNY   20  -1  40 NW24G32   29.96F WCI   3
$$

SDZ012>016-024>037-041>051-057-063-072>074-032300-
SOUTHWEST AND SOUTH CENTRAL SOUTH DAKOTA

CITY           SKY/WX    TMP DP  RH WIND       PRES   REMARKS
RAPID CTY ARPT CLOUDY    16   2  54 N25       29.94F WCI  -3
PIERRE         MOSUNNY   20   4  50 NW17G25   30.00F WCI   5
CUSTER         CLOUDY    13   2  61 NW6       29.77S WCI   4
PHILIP         MOSUNNY   20   3  48 NW15G25   30.02S WCI   6
PINE RIDGE     PTSUNNY   17   5  59 NE9       29.96F WCI   6
SPEARFISH      FAIR      12   0  57 MISG      29.93F
WINNER         FAIR      20   2  45 NW22G31   30.02R WCI   3
$$

SDZ004>011-016>023-039-040-032300-
NORTHEAST SOUTH DAKOTA

CITY           SKY/WX    TMP DP  RH WIND       PRES   REMARKS
ABERDEEN       MOSUNNY   15   1  53 NW26G36   30.00R WCI  -4
WATERTOWN      PTSUNNY   10   2  69 NW24G32   29.92R WCI -10
SISSETON         N/A     12   2  64 N30G36    29.93  WCI -10
$$

SDZ017-020-022-023-036>040-048>070-032300-
SOUTHEAST SOUTH DAKOTA

CITY           SKY/WX    TMP DP  RH WIND       PRES   REMARKS
SIOUX FALLS    PTSUNNY   15   6  67 NW25G33   29.96R BLWGSNOWWCI  -4
HURON          PTSUNNY   16   3  56 NW25      30.00S WCI  -3
MITCHELL       PTSUNNY   19   8  62 NW20G32   30.03R WCI   3
YANKTON        SUNNY    N/A N/A N/A NW26      30.02R
$$

ABBREVIATIONS USED IN REMARKS
   TC - TEMPERATURE IN CELSIUS
  WCI - WIND CHILL INDEX
   HX - HEAT INDEX
  VSB - VISIBILITY




USA.gov is the U.S. government's official web portal to all federal, state and local government web resources and services.